[[{"header":{"parameterUnit":"m.s-1","parameterCategory":1,"la1":30.2991,"la2":30.254,"lo1":-89.0895,"lo2":-89.0444,"dy":0.0017,"dx":0.0017,"nx":28,"ny":28,"refTime":"2025-07-21T09:00:00:Z","depth":0,"parameterNumber":2,"parameterNumberName":"U-component_of_WINDS"},"data":[0,0,0,0,0,0,0,0,0,0,0,0,0,0,0,0,0,0,0,0,0,0,0,0,0,0,0,0,0,0,0,0,0,0,0,0,0,0,0,0,0,0,0,0,0,0,0,0,0,0,0,0,0,0,0,0,0,0,4.0651,4.0652,0,4.0745,4.0746,4.0747,4.0683,4.068,4.0677,4.0674,4.0772,4.0777,4.0782,0,0,0,0,0,0,0,0,0,0,0,0,0,4.0419,4.0424,4.0651,4.0652,4.0654,4.0745,4.0746,4.0747,4.0683,4.068,4.0676,4.0673,4.077,4.0776,4.0783,0,0,0,0,0,0,0,0,0,0,0,0,0,4.0517,4.0426,4.0651,4.0633,4.0632,4.0744,4.0746,4.0748,4.0684,4.068,4.0675,4.0671,4.0768,4.0776,4.0783,4.092,0,0,4.0808,4.0811,0,0,0,0,0,0,0,0,4.0512,4.0526,4.0634,4.0634,4.0633,4.0698,4.07,4.0805,4.0685,4.0664,4.0674,4.0669,4.0751,4.076,4.0787,4.0924,4.0928,4.0808,4.0813,4.0817,4.0819,0,0,0,0,0,0,0,4.0505,4.0522,4.0688,4.0636,4.0635,4.062,4.063,4.072,4.0731,4.0666,4.0661,4.0673,4.075,4.0779,4.0789,4.093,4.0808,4.0815,4.082,4.0823,4.1186,4.119,0,0,0,0,0,0,4.05,4.0516,4.0685,4.0691,4.0561,4.0628,4.0638,4.0682,4.073,4.0733,4.0677,4.067,4.0768,4.078,4.0792,4.0956,4.0817,4.0824,4.0829,4.1181,4.1187,4.1192,0,0,0,0,0,0,4.0495,4.0515,4.0682,4.0603,4.0623,4.0637,4.0686,4.0686,4.0715,4.0738,4.074,4.0705,4.0765,4.0781,4.0889,4.0958,4.0828,4.0835,4.1175,4.1183,4.1189,4.1284,0,0,0,0,0,0,4.0489,4.0514,4.0565,4.0604,4.0627,4.0776,4.069,4.0691,4.0729,4.0721,4.0765,4.0768,4.0763,4.0877,4.0897,4.0967,4.0841,4.1169,4.1178,4.1187,4.1275,4.1294,4.131,0,0,0,0,0,4.0481,4.0588,4.0568,4.0589,4.0691,4.078,4.0794,4.0785,4.0735,4.0787,4.0802,4.0767,4.0947,4.0889,4.091,4.0984,4.1164,4.1176,4.1186,4.1267,4.129,4.131,0,0,0,0,0,0,4.0558,4.0593,4.0571,4.0695,4.0735,4.0769,4.0835,4.0809,4.0865,4.0855,4.0842,4.0853,4.0966,4.0985,4.092,4.1119,4.1048,4.1064,4.1102,4.1124,4.1142,4.1135,4.0848,0,0,0,0,0,4.0589,4.0658,4.0685,4.0791,4.0813,4.0821,4.0859,4.0849,4.089,4.0907,4.093,4.0972,4.1038,4.1082,4.1144,4.1277,4.1287,4.1339,4.1356,4.137,4.1384,4.1458,4.1481,4.1228,4.1228,4.1227,0,0,4.0654,4.0682,4.0726,4.0808,4.0838,4.091,4.0835,4.0915,4.0969,4.0919,4.1023,4.1041,4.1087,4.1209,4.1264,4.1229,4.1457,4.1384,4.1396,4.1402,4.1471,4.1495,4.1517,4.1235,4.1234,4.1233,0,0,4.0811,4.0838,4.093,4.0962,4.1009,4.1014,4.1036,4.1075,4.1085,4.1188,4.1154,4.1218,4.1332,4.1367,4.1399,4.1571,4.1541,4.1592,4.1683,4.1755,4.1775,4.1793,4.1855,4.1877,4.1605,4.1605,4.1606,0,4.0886,4.0993,4.0981,4.1064,4.1101,4.106,4.1154,4.1185,4.125,4.1278,4.1237,4.1381,4.1409,4.1539,4.1581,4.1608,4.1634,4.1587,4.1773,4.1791,4.1807,4.1866,4.189,4.1611,4.1611,4.161,4.161,0,4.1085,4.116,4.1229,4.1292,4.1337,4.1425,4.1428,4.1475,4.1461,4.1471,4.1578,4.161,4.1679,4.1709,4.1696,4.1838,4.1815,4.1774,4.1703,4.1837,4.1893,4.1915,4.162,4.1618,4.1616,4.1614,0,0,4.1292,4.1348,4.1374,4.1403,4.1452,4.151,4.1597,4.1664,4.1705,4.1752,4.1825,4.1923,4.1886,4.1924,4.1915,4.1977,4.2113,4.1929,4.193,4.1963,4.2272,4.2303,4.233,4.2093,4.2098,4.2101,4.2269,0,4.1452,4.1603,4.1595,4.1737,4.1806,4.1769,4.1844,4.1883,4.1895,4.1956,4.1969,4.2039,4.1985,4.2007,4.2067,4.2084,4.2175,4.2071,4.2162,4.2166,4.2153,4.2359,4.2391,4.2548,4.229,4.2294,4.2297,0,4.1659,4.1712,4.1861,4.1901,4.193,4.1998,4.2059,4.2118,4.2162,4.2166,4.2209,4.219,4.2279,4.2205,4.2328,4.2257,4.2294,4.2308,4.2314,4.2323,4.224,4.2374,4.2598,4.2622,4.2331,4.2328,4.2326,0,4.1797,4.1906,4.2009,4.2035,4.2084,4.2133,4.2155,4.2195,4.2236,4.229,4.2317,4.2381,4.2416,4.2466,4.2466,4.2412,4.2591,4.2517,4.2598,4.2598,4.2638,4.2636,4.2872,4.2661,4.266,4.266,4.2659,0,4.1977,4.207,4.2072,4.2136,4.2239,4.223,4.2333,4.235,4.2386,4.2453,4.2424,4.2488,4.2483,4.2548,4.2548,4.2651,4.2667,4.2673,4.2672,4.2677,4.2676,4.2701,4.2691,4.2666,4.2665,4.2663,4.2662,0,4.2149,4.2154,4.2264,4.2301,4.2313,4.2388,4.242,4.2481,4.249,4.2575,4.2595,4.261,4.2685,4.2689,4.2775,4.2776,4.2901,4.2888,4.2886,4.2884,4.2966,4.2958,4.3227,4.3262,4.3027,4.3029,4.3031,0,4.2264,4.2334,4.2379,4.2422,4.2447,4.2517,4.2559,4.2553,4.2598,4.2654,4.2709,4.2781,4.2838,4.296,4.2979,4.3046,4.3034,4.3124,4.3044,4.3047,4.3037,4.3033,4.3041,4.314,4.3142,4.3144,4.3146,0,4.2468,4.2467,4.2528,4.2592,4.2643,4.2692,4.2738,4.2775,4.2774,4.2827,4.2903,4.2948,4.3037,4.3109,4.3175,4.3198,4.3174,4.3171,4.3194,4.3199,4.3196,4.32,4.293,4.3165,4.3163,4.3162,4.3161,4.316,4.2616,4.2677,4.2719,4.2788,4.2822,4.2866,4.2926,4.2942,4.3006,4.3077,4.307,4.3155,4.3198,4.3283,4.3312,4.338,4.3349,4.3382,4.339,4.3398,4.3408,4.3184,4.3391,4.3391,4.339,4.339,4.3389,0,4.2819,4.2844,4.2909,4.2974,4.3029,4.3,4.3049,4.3098,4.3173,4.3215,4.3273,4.3361,4.3432,4.3457,4.3525,4.3575,4.3565,4.3593,4.359,4.3596,4.343,4.3404,4.36,4.36,4.36,4.36,4.36,4.36,4.2932,4.3035,4.3039,4.3159,4.3183,4.3266,4.3298,4.3338,4.3372,4.3472,4.353,4.3546,4.3582,4.3653,4.3717,4.3723,4.375,4.3783,4.3784,4.3629,4.3608,4.3588,4.3563,4.3789,4.3789,4.3945,4.3946,4.3947]},{"header":{"parameterUnit":"m.s-1","parameterCategory":1,"la1":30.2991,"la2":30.254,"lo1":-89.0895,"lo2":-89.0444,"dy":0.0017,"dx":0.0017,"nx":28,"ny":28,"refTime":"2025-07-21T09:00:00:Z","depth":0,"parameterNumber":3,"parameterNumberName":"V-component_of_WINDS"},"data":[0,0,0,0,0,0,0,0,0,0,0,0,0,0,0,0,0,0,0,0,0,0,0,0,0,0,0,0,0,0,0,0,0,0,0,0,0,0,0,0,0,0,0,0,0,0,0,0,0,0,0,0,0,0,0,0,0,0,-1.7633,-1.7634,0,-1.7693,-1.7694,-1.7695,-1.7699,-1.7698,-1.7698,-1.7697,-1.7758,-1.776,-1.7762,0,0,0,0,0,0,0,0,0,0,0,0,0,-1.7523,-1.7525,-1.7633,-1.7634,-1.7635,-1.7693,-1.7694,-1.7695,-1.7699,-1.7698,-1.7698,-1.7697,-1.7757,-1.776,-1.7763,0,0,0,0,0,0,0,0,0,0,0,0,0,-1.7575,-1.7525,-1.7633,-1.7644,-1.7646,-1.7693,-1.7694,-1.7695,-1.7699,-1.7698,-1.7697,-1.7696,-1.7756,-1.776,-1.7763,-1.7803,0,0,-1.7773,-1.7775,0,0,0,0,0,0,0,0,-1.7572,-1.7579,-1.7642,-1.7643,-1.7645,-1.7688,-1.7677,-1.7731,-1.77,-1.7679,-1.7697,-1.7696,-1.7735,-1.774,-1.7754,-1.7806,-1.7809,-1.7773,-1.7776,-1.7777,-1.7778,0,0,0,0,0,0,0,-1.7569,-1.7577,-1.7657,-1.7642,-1.7645,-1.7646,-1.7652,-1.7688,-1.7712,-1.7681,-1.7681,-1.7688,-1.7736,-1.7751,-1.7755,-1.781,-1.7773,-1.7776,-1.7778,-1.778,-1.7899,-1.79,0,0,0,0,0,0,-1.7563,-1.7574,-1.7655,-1.7659,-1.7606,-1.7649,-1.7656,-1.7675,-1.7712,-1.7716,-1.7689,-1.7688,-1.7745,-1.7751,-1.7757,-1.7808,-1.7777,-1.778,-1.7782,-1.7898,-1.79,-1.7901,0,0,0,0,0,0,-1.7561,-1.757,-1.7653,-1.7616,-1.7627,-1.7652,-1.7673,-1.7677,-1.7691,-1.7718,-1.7722,-1.7699,-1.7745,-1.7753,-1.7792,-1.781,-1.7782,-1.7785,-1.7897,-1.7899,-1.79,-1.7908,0,0,0,0,0,0,-1.7557,-1.7569,-1.7585,-1.7617,-1.7629,-1.7686,-1.7674,-1.7679,-1.7697,-1.7696,-1.7729,-1.7733,-1.7745,-1.7787,-1.7795,-1.7814,-1.7787,-1.7895,-1.7898,-1.79,-1.7906,-1.791,-1.7913,0,0,0,0,0,-1.7553,-1.7584,-1.7585,-1.7595,-1.7649,-1.7687,-1.7694,-1.7707,-1.7698,-1.7714,-1.7732,-1.7732,-1.7807,-1.7791,-1.7801,-1.782,-1.7894,-1.7897,-1.7899,-1.7905,-1.7909,-1.7912,0,0,0,0,0,0,-1.7553,-1.7589,-1.759,-1.7632,-1.7657,-1.7688,-1.7708,-1.7711,-1.7738,-1.7737,-1.7752,-1.7759,-1.7798,-1.7813,-1.7795,-1.7862,-1.7849,-1.7854,-1.785,-1.7854,-1.7858,-1.7853,-1.779,0,0,0,0,0,-1.7558,-1.7586,-1.7616,-1.765,-1.7662,-1.7683,-1.77,-1.7708,-1.7734,-1.7744,-1.7765,-1.779,-1.7819,-1.7837,-1.7866,-1.7909,-1.7916,-1.7927,-1.793,-1.7933,-1.7936,-1.7961,-1.7966,-1.7909,-1.7909,-1.7909,0,0,-1.7568,-1.7591,-1.7608,-1.7651,-1.767,-1.77,-1.7692,-1.7723,-1.7744,-1.7749,-1.7788,-1.7804,-1.7832,-1.7874,-1.7893,-1.7888,-1.7954,-1.7936,-1.7938,-1.794,-1.7964,-1.7969,-1.7974,-1.7911,-1.7911,-1.7911,0,0,-1.7602,-1.7622,-1.7653,-1.7673,-1.7704,-1.7718,-1.7725,-1.7756,-1.7767,-1.7806,-1.781,-1.7836,-1.7886,-1.7907,-1.7924,-1.7966,-1.7968,-1.7975,-1.7992,-1.8016,-1.802,-1.8024,-1.8039,-1.8045,-1.7979,-1.7979,-1.7979,0,-1.7611,-1.7655,-1.7668,-1.77,-1.7718,-1.7725,-1.7756,-1.7775,-1.7813,-1.7826,-1.782,-1.7883,-1.7903,-1.7949,-1.796,-1.7973,-1.7982,-1.7971,-1.8018,-1.8022,-1.8026,-1.8041,-1.8047,-1.798,-1.798,-1.798,-1.7979,0,-1.7664,-1.7695,-1.7716,-1.7753,-1.7774,-1.7805,-1.7824,-1.7844,-1.7851,-1.7865,-1.7905,-1.793,-1.7963,-1.7975,-1.7981,-1.8023,-1.8019,-1.8015,-1.8003,-1.8032,-1.8046,-1.8052,-1.7981,-1.798,-1.798,-1.798,0,0,-1.7698,-1.7743,-1.7751,-1.7768,-1.7802,-1.7826,-1.7858,-1.7891,-1.7908,-1.7935,-1.7962,-1.8004,-1.8002,-1.8021,-1.803,-1.8051,-1.8083,-1.8045,-1.8045,-1.8051,-1.8131,-1.8133,-1.8139,-1.8085,-1.8086,-1.8087,-1.8128,0,-1.7735,-1.7792,-1.7806,-1.7854,-1.7883,-1.789,-1.7918,-1.7942,-1.7957,-1.7984,-1.8,-1.803,-1.8024,-1.8036,-1.8057,-1.8075,-1.8099,-1.8072,-1.811,-1.8111,-1.8102,-1.8147,-1.8149,-1.8187,-1.8134,-1.8135,-1.8136,0,-1.7786,-1.7814,-1.7865,-1.7897,-1.7909,-1.7934,-1.7966,-1.7991,-1.8019,-1.8029,-1.8051,-1.8058,-1.8092,-1.8079,-1.8126,-1.8107,-1.8123,-1.8135,-1.8137,-1.814,-1.8125,-1.8151,-1.8199,-1.8205,-1.8144,-1.8144,-1.8143,0,-1.7805,-1.7856,-1.7894,-1.7908,-1.7946,-1.7963,-1.798,-1.8007,-1.8026,-1.8054,-1.8067,-1.8099,-1.8116,-1.814,-1.8156,-1.8145,-1.8202,-1.8189,-1.821,-1.821,-1.8221,-1.822,-1.8272,-1.8233,-1.8233,-1.8232,-1.8232,0,-1.7845,-1.7877,-1.7903,-1.7926,-1.7961,-1.7977,-1.8012,-1.8029,-1.8053,-1.808,-1.8088,-1.8112,-1.8132,-1.8159,-1.8172,-1.8209,-1.8217,-1.8225,-1.8228,-1.8225,-1.8223,-1.8235,-1.8233,-1.8234,-1.8234,-1.8233,-1.8233,0,-1.7873,-1.7892,-1.7933,-1.7966,-1.7975,-1.7999,-1.8028,-1.805,-1.8066,-1.81,-1.8108,-1.8133,-1.8166,-1.8184,-1.8225,-1.8234,-1.8275,-1.8277,-1.8266,-1.8267,-1.8287,-1.8285,-1.8348,-1.8357,-1.8311,-1.8312,-1.8312,0,-1.7897,-1.7921,-1.7957,-1.7975,-1.7992,-1.8022,-1.8042,-1.8059,-1.808,-1.8114,-1.8133,-1.8166,-1.8194,-1.8246,-1.8268,-1.83,-1.8302,-1.8322,-1.8307,-1.8302,-1.8302,-1.8301,-1.8303,-1.8324,-1.8325,-1.8325,-1.8326,0,-1.7937,-1.7946,-1.7974,-1.8007,-1.803,-1.8057,-1.8082,-1.8097,-1.8119,-1.8142,-1.8176,-1.8197,-1.824,-1.8273,-1.8307,-1.8324,-1.8329,-1.833,-1.8337,-1.8333,-1.8326,-1.833,-1.8273,-1.8329,-1.8328,-1.8328,-1.8328,-1.8328,-1.7964,-1.7986,-1.8015,-1.8047,-1.8068,-1.8092,-1.8116,-1.8134,-1.8163,-1.8199,-1.8208,-1.8244,-1.8272,-1.8318,-1.8336,-1.8365,-1.8361,-1.837,-1.8373,-1.8375,-1.8375,-1.8321,-1.8371,-1.8371,-1.8371,-1.8371,-1.8371,0,-1.8005,-1.8024,-1.8053,-1.809,-1.8115,-1.8117,-1.8146,-1.8167,-1.8199,-1.8225,-1.8252,-1.8292,-1.8325,-1.8349,-1.8383,-1.8401,-1.8404,-1.8409,-1.8408,-1.8412,-1.8377,-1.8368,-1.8406,-1.8406,-1.8406,-1.8406,-1.8406,-1.8406,-1.8029,-1.8067,-1.8079,-1.8128,-1.8147,-1.8182,-1.8198,-1.8221,-1.8242,-1.8286,-1.8313,-1.8329,-1.8355,-1.839,-1.8421,-1.8427,-1.8439,-1.8444,-1.8451,-1.8418,-1.8414,-1.841,-1.8402,-1.8446,-1.8447,-1.8483,-1.8483,-1.8484]}]]